TimeMDT,TemperatureF,Dew PointF,Humidity,Sea Level PressureIn,VisibilityMPH,Wind Direction,Wind SpeedMPH,Gust SpeedMPH,PrecipitationIn,Events,Conditions,WindDirDegrees,DateUTC
12:53 AM,54.0,26.1,34,29.88,10.0,SSW,10.4,-,N/A,,Partly Cloudy,210,2012-10-11 06:53:00
1:53 AM,52.0,26.1,37,29.89,10.0,SSW,5.8,-,N/A,,Partly Cloudy,200,2012-10-11 07:53:00
2:53 AM,46.9,27.0,46,29.91,10.0,SSW,6.9,-,N/A,,Partly Cloudy,210,2012-10-11 08:53:00
3:53 AM,46.0,27.0,47,29.91,10.0,SSW,8.1,-,N/A,,Clear,200,2012-10-11 09:53:00
4:53 AM,46.9,26.1,44,29.92,10.0,Calm,Calm,-,N/A,,Clear,0,2012-10-11 10:53:00
5:53 AM,39.9,26.1,58,29.95,10.0,Calm,Calm,-,N/A,,Clear,0,2012-10-11 11:53:00
6:53 AM,37.0,28.0,70,29.98,10.0,Calm,Calm,-,N/A,,Clear,0,2012-10-11 12:53:00
7:53 AM,37.9,27.0,65,30.01,10.0,North,3.5,-,N/A,,Clear,360,2012-10-11 13:53:00
8:53 AM,44.1,30.0,58,30.03,10.0,North,3.5,-,N/A,,Clear,360,2012-10-11 14:53:00
9:53 AM,48.0,28.0,46,30.02,10.0,North,5.8,-,N/A,,Clear,360,2012-10-11 15:53:00
10:53 AM,54.0,30.0,40,30.01,7.0,NNE,4.6,-,N/A,,Clear,20,2012-10-11 16:53:00
11:53 AM,60.1,27.0,28,29.99,10.0,Calm,Calm,-,N/A,,Clear,0,2012-10-11 17:53:00
12:53 PM,64.9,27.0,24,29.96,10.0,Variable,3.5,-,N/A,,Clear,0,2012-10-11 18:53:00
1:53 PM,68.0,28.9,23,29.92,10.0,West,6.9,-,N/A,,Clear,280,2012-10-11 19:53:00
2:53 PM,71.1,28.0,20,29.91,10.0,South,4.6,-,N/A,,Clear,180,2012-10-11 20:53:00
5:53 PM,72.0,32.0,23,29.88,10.0,Calm,Calm,-,N/A,,Clear,0,2012-10-11 23:53:00
7:53 PM,54.0,37.0,53,29.93,10.0,Calm,Calm,-,N/A,,Clear,0,2012-10-12 01:53:00
8:53 PM,52.0,36.0,54,29.93,10.0,Calm,Calm,-,N/A,,Clear,0,2012-10-12 02:53:00
9:53 PM,46.9,35.1,63,29.94,10.0,Calm,Calm,-,N/A,,Clear,0,2012-10-12 03:53:00
10:53 PM,44.1,32.0,63,29.93,10.0,North,3.5,-,N/A,,Clear,360,2012-10-12 04:53:00
11:53 PM,44.1,32.0,63,29.91,10.0,North,4.6,-,N/A,,Clear,10,2012-10-12 05:53:00